Weather History for KJST - September, 2013

Change the Weather History Date:

Monday, September 23, 2013

  Actual Average Record
Temperature  
Mean Temperature 47 °F 57 °F  
Max Temperature 53 °F 66 °F 94 °F (1908)
Min Temperature 40 °F 48 °F 32 °F (1904)
Degree Days  
Heating Degree Days 18 8  
Month to date heating degree days 151 111  
Since 1 July heating degree days 222 153  
Cooling Degree Days 0 0  
Month to date cooling degree days 31 22  
Year to date cooling degree days 377 382  
Moisture  
Dew Point 39 °F    
Average Humidity 74    
Maximum Humidity 89    
Minimum Humidity 59    
Precipitation  
Precipitation 0.00 in 0.11 in 1.78 in (1912)
Month to date precipitation 4.07 2.62  
Year to date precipitation 29.02 26.91  
Sea Level Pressure  
Sea Level Pressure 30.11 in    
Wind  
Wind Speed 6 mph (NNW)    
Max Wind Speed 13 mph    
Max Gust Speed 18 mph    
Visibility 10 miles    
Events      
T = Trace of Precipitation, MM = Missing Value Source: NWS Daily Summary

Daily Weather History Graph

Daily Weather History Graph

Search for Another Location

Airport or City:

Trip Planner

Search our weather history database for the weather conditions in past years. The results will help you decide how hot, cold, wet, or windy it might be!

Date:

Astronomy

Sep. 23, 2013 Rise Set
Actual Time 7:04 AM EDT 7:10 PM EDT
Civil Twilight 6:36 AM EDT 7:37 PM EDT
Nautical Twilight 6:05 AM EDT 8:09 PM EDT
Astronomical Twilight 5:32 AM EDT 8:41 PM EDT
Moon 9:40 PM EDT (9/23) 11:22 AM EDT (9/23)
Length of Visible Light 13h 00m
Length of Day
12h 06m
Waning Gibbous, 81% of the Moon is Illuminated
Sep 23
Waning Gibbous
Sep 26
Last Quarter
Oct 4
New
Oct 11
First Quarter
Oct 18
Full

Hourly Weather History & Observations

Time (EDT) Temp. Windchill Dew Point Humidity Pressure Visibility Wind Dir Wind Speed Gust Speed Precip Events Conditions
12:54 AM 46.9 °F - 42.1 °F 83% 30.02 in 10.0 mi North 5.8 mph - N/A   Overcast
1:54 AM 46.9 °F - 39.9 °F 77% 30.03 in 10.0 mi North 6.9 mph - N/A   Overcast
2:54 AM 46.0 °F 41.9 °F 42.1 °F 86% 30.03 in 10.0 mi North 8.1 mph - N/A   Overcast
3:54 AM 46.0 °F 41.9 °F 37.9 °F 73% 30.04 in 10.0 mi North 8.1 mph - N/A   Overcast
4:54 AM 46.0 °F 43.1 °F 37.9 °F 73% 30.05 in 10.0 mi NW 5.8 mph - N/A   Overcast
5:54 AM 45.0 °F 42.6 °F 37.9 °F 76% 30.06 in 10.0 mi North 4.6 mph - N/A   Overcast
6:54 AM 45.0 °F 42.6 °F 39.9 °F 82% 30.09 in 10.0 mi North 4.6 mph - N/A   Overcast
7:54 AM 45.0 °F 41.8 °F 39.9 °F 82% 30.11 in 10.0 mi North 5.8 mph - N/A   Overcast
8:54 AM 45.0 °F 40.6 °F 37.0 °F 74% 30.13 in 10.0 mi NNW 8.1 mph - N/A   Overcast
9:54 AM 44.1 °F 39.5 °F 37.0 °F 76% 30.14 in 10.0 mi NNW 8.1 mph - N/A   Overcast
10:54 AM 45.0 °F 41.2 °F 37.0 °F 74% 30.14 in 10.0 mi North 6.9 mph - N/A   Overcast
11:54 AM 45.0 °F 40.6 °F 37.9 °F 76% 30.16 in 10.0 mi NW 8.1 mph - N/A   Overcast
12:54 PM 46.9 °F - 37.9 °F 71% 30.16 in 10.0 mi NW 8.1 mph - N/A   Overcast
1:54 PM 48.9 °F - 39.0 °F 69% 30.14 in 10.0 mi NW 3.5 mph - N/A   Overcast
2:54 PM 51.1 °F - 39.0 °F 63% 30.13 in 10.0 mi NW 9.2 mph - N/A   Partly Cloudy
3:54 PM 51.1 °F - 39.0 °F 63% 30.12 in 10.0 mi WNW 6.9 mph - N/A   Clear
4:54 PM 53.1 °F - 39.9 °F 61% 30.12 in 10.0 mi NNW 8.1 mph - N/A   Clear
5:54 PM 52.0 °F - 39.9 °F 63% 30.12 in 10.0 mi NNW 8.1 mph - N/A   Clear
6:54 PM 48.9 °F - 39.9 °F 71% 30.13 in 10.0 mi NW 6.9 mph - N/A   Clear
7:54 PM 46.0 °F 43.1 °F 39.9 °F 79% 30.14 in 10.0 mi WNW 5.8 mph - N/A   Clear
8:54 PM 44.1 °F 40.8 °F 39.0 °F 82% 30.15 in 10.0 mi NW 5.8 mph - N/A   Clear
9:54 PM 45.0 °F 43.5 °F 39.0 °F 80% 30.15 in 10.0 mi NNW 3.5 mph - N/A   Clear
10:54 PM 42.1 °F - 39.9 °F 92% 30.15 in 10.0 mi Calm Calm - N/A   Clear
11:54 PM 42.1 °F - 39.0 °F 89% 30.15 in 10.0 mi Calm Calm - N/A   Clear